Location: La Estación
(39.9833°N, 3.9500°W)
Time: 16:06:51
(UTC+00:00)

Cosmos 1515 Rocket - Pass Details

Date: 14 June 2025
Orbit: 599 x 624 km, 82.5° (Epoch: 19 July)

Event Time Altitude Azimuth Distance (km) Brightness Sun altitude
Exits shadow 21:34:47 28° 164° (SSE) 1,169 4.4 -16.4°
Maximum altitude 21:36:56 60° 94° (E) 716 3.6 -16.6°
Drops below altitude 10° 21:41:19 10° 15° (NNE) 2,005 6.7 -17.1°
Sets 21:43:34 0° 12° (NNE) 2,916 7.6 -17.4°
